Погода в Тобольске

Хотите узнать прогноз погоды в Тобольске? Тогда Вам сюда: Погода в Тобольске

Поиск расширенной информации на нашем сайте:

Полезная информация:

Новости сайта



02.01.2020
Опубликован Долгосрочный прогноз погоды по городам России и ближнего зарубежья на январь 2020 года.
Карты: Прогноз на январь и февраль 2020 года, Сравнение прогнозируемой аномалии приземной температуры воздуха на январь 2020 года по разным моделям.




Погода в Тобольске - сегодня

Время (UTC), дата Ветер
(°,м/с) 
Видим.   Явления Облачность Т
(°С)
Тd
(°С)
f(%) Тe
(°С)
Pmin
(гПа)
dP
(гПа)
Po
(мм)
O2
(г/м3)
Тmin Tmax R s Состояние
почвы
09 04.06.20 350 (С) 20000 м    6/6 600 м 
[Cu med, cong]
+13.5 +0.8 42 +13  1021.9  -0.2  762  292           
12 04.06.20 340 (С) 20000 м    6/6 600 м 
[Cu med, cong]
+14.8 +0.8 38 +15  1021.5  -0.5  762  291           
15 04.06.20 340 (С) 20000 м    3/3 600 м 
[Sc]
+14.2 +1.8 43 +15  1021.2  -0.2  761  291    +15.2       
18 04.06.20 310 (СЗ) 10 км    ясно 
+8.4 +4 74 +9  1021.5  0.2  762  297           
21 04.06.20 290 (З) 10 км    8/0 средняя 
[Ac trans]
+9.3 +4.4 71 +10  1022  0.5  762  296           
00 05.06.20 290 (З) 20000 м    ясно 
+9.4 +4.9 73 +9  1022.8  0.7  763  296           
03 05.06.20 330 (СЗ) 20000 м    ясно 
+13.5 +5.6 59 +14  1022.9  0.3  763  292  +7.6         
06 05.06.20 340 (С) 3{10}  20000 м    ясно 
+18.4 +2.5 35 +19  1022.7  -0.1  763  288           
09 05.06.20 350 (С) 20000 м    ясно 
+20.4 +2.7 31 +20  1022.5  -0.2  763  286           
12 05.06.20 330 (СЗ) 20000 м    ясно 
+21 +3.1 31 +21  1022.4  -0.1  762  285           
15 05.06.20 330 (СЗ) 20000 м    ясно 
+19.4 +4.6 38 +20  1022.2  -0.2  762  286    +21       
18 05.06.20 тихо ()   10 км    ясно 
+10.7 +8.4 86 +11  1023  0.6  763  294           
21 05.06.20 тихо ()   10 км  местами туман поземный  3/0 верхняя 
[Ci fib]
+7.2 +6 92 +7  1024.1  764  299           
00 06.06.20 тихо ()   20000 м    1/0 верхняя 
[Ci fib]
+8.9 +7.9 93 +9  1024.8  0.7  764  297           
03 06.06.20 тихо ()   20000 м    1/0 верхняя 
[Ci fib]
+18.5 +8.9 54 +19  1024.7  0.2  764  287  +5.9         
06 06.06.20 310 (СЗ) 20000 м    3/0 верхняя 
[Ci fib]
+23.1 +5.3 32 +23  1024.5  -0.2  764  283           
09 06.06.20 330 (СЗ) 20000 м    4/0 верхняя 
[Ci fib]
+24.6 +4 26 +25  1023.6  -0.8  763  282           
12 06.06.20 310 (СЗ) 20000 м    4/0 верхняя 
[Ci fib]
+25.4 +5 27 +25  1022.8  -0.8  763  280           
15 06.06.20 260 (З) 20000 м    4/0 верхняя 
[Ci fib]
+21.1 +9.4 47 +21  1022.2  -0.7  762  284    +25.8       
18 06.06.20 230 (ЮЗ) 10 км    3/0 верхняя 
[Ci fib]
+12.7 +8.4 75 +14  1023  0.6  763  292           
21 06.06.20 тихо ()   10 км  местами туман поземный  ясно 
+10.6 +9.4 92 +11  1023.4  0.4  763  294           
00 07.06.20 тихо ()   20000 м    ясно 
+12.8 +11.8 94 +16  1023.5  0.2  763  292           
03 07.06.20 310 (СЗ) 20000 м    3/0 верхняя 
[Ci fib]
+20 +10.5 54 +21  1023.6  0.2  763  285  +9.1         
06 07.06.20 230 (ЮЗ) 20000 м    5/0 верхняя 
[Ci fib]
+24.9 +7 32 +25  1023.1  -0.4  763  281           
09 07.06.20 320 (СЗ) 20000 м    4/0 верхняя 
[Ci fib]
+26.9 +6.3 27 +27  1022.2  -0.9  762  279           
Время (UTC), дата Ветер
(°,м/с) 
Видим.   Явления Облачность Т
(°С)
Тd
(°С)
f(%) Тe
(°С)
Pmin
(гПа)
dP
(гПа)
Po
(мм)
O2
(г/м3)
Тmin Tmax R s Состояние
почвы

Для получения пояснительной информации подведите курсор к названию столбца.

ПОГОДА в Тобольске - архив

Всё, что Вы хотите узнать о погоде в Тобольске - удобно и подробно!

Выберите нужную дату (начиная с 1 января 2019* года) и нажмите кнопку "Найти".
Будут отображены архивные сводки погоды по пункту Тобольск, начиная с указанной даты.


Отображать данные в формате CSV (для использования в таблицах Excel)


Внимание! Наш архив погоды предназначен исключительно для личного некоммерческого использования в познавательных целях. Если Вам необходимы официальные справки о состоянии погоды (для производственных, юридических, коммерческих и т.п. целей), обращайтесь в органы Росгидромета.

*Примечание: данная дата относится к архиву по метеостанциям СССР (Россия, СНГ, Балтия).
Архив по метеостанциям Зарубежной Европы и Азии (кроме Китая) хранится 10 дней, по другим регионам земного шара (Китай, Африка, Америка, Австралия, Океания) - 1 день.

Тобольск - район местоположения метеостанции


Название, широта, долгота, высота метеостанции:
Тобольск 58.2°ш. 68.2°д. 50 м над ур. моря [Российская Федерация]

Дополнительная информация

В oтличие oт бoльшинства пoгoдных сайтoв мы публикуем пoдрoбную метеoинфoрмацию в детальнoм прoфессиoнальнoм фoрмате.

Характеристики температуры и влажнoсти вoздуха измеряются на высoте 2 м в тени вдали oт зданий и деревьев.
Скoрoсть ветра измеряется на высoте 10 м (на урoвне рoста челoвека скoрoсть ветра ниже в 1.5-2 раза). Если метеoстанция нахoдится в гoрoде или в лесу, тo скoрoсть ветра занижена на 2-4 м/с пo сравнению с oткрытым местoм. Скoрoсть ветра над акватoриями крупных рек и oзёр, а также на вершинах хoлмoв на 2-5 м/с выше, чем в oбычных услoвиях.
Атмoсфернoе давление в разных тoчках местнoсти мoжет значительнo oтличаться oт давления на метеoстанции, в зависимoсти oт услoвий рельефа (при пoдъёме на 10 м давление пoнижается примернo на 1 мм рт.ст.).